Weather History for KGCC - June, 2014

Change the Weather History Date:

Friday, June 20, 2014

  Actual Average Record
Temperature  
Mean Temperature 66 °F 64 °F  
Max Temperature 82 °F 79 °F 98 °F (1974)
Min Temperature 49 °F 49 °F 30 °F (1929)
Degree Days  
Heating Degree Days 0 3  
Month to date heating degree days 158 118  
Since 1 June heating degree days 158 118  
Since 1 July heating degree days 7790 7520  
Cooling Degree Days 1 2  
Month to date cooling degree days 5 27  
Year to date cooling degree days 13 35  
Since 1 June cooling degree days 5 27  
Growing Degree Days 16 (Base 50)    
Moisture  
Dew Point 42 °F    
Average Humidity 50    
Maximum Humidity 74    
Minimum Humidity 25    
Precipitation  
Precipitation 0.00 in 0.05 in 0.62 in (1958)
Month to date precipitation 1.32 1.59  
Year to date precipitation 10.92 7.25  
Sea Level Pressure  
Sea Level Pressure 29.89 in    
Wind  
Wind Speed 8 mph (WSW)    
Max Wind Speed 20 mph    
Max Gust Speed 23 mph    
Visibility 10 miles    
Events      
T = Trace of Precipitation, MM = Missing Value Source: NWS Daily Summary

Daily Weather History Graph

Daily Weather History Graph

Search for Another Location

Airport or City:

Trip Planner

Search our weather history database for the weather conditions in past years. The results will help you decide how hot, cold, wet, or windy it might be!

Date:

Astronomy

Jun. 20, 2014 Rise Set
Actual Time 5:17 AM MDT 8:49 PM MDT
Civil Twilight 4:41 AM MDT 9:26 PM MDT
Nautical Twilight 3:52 AM MDT 10:14 PM MDT
Astronomical Twilight 2:49 AM MDT 11:17 PM MDT
Moon 1:11 AM MDT (6/20) 2:15 PM MDT (6/20)
Length of Visible Light 16h 45m
Length of Day
15h 31m
Last Quarter, 39% of the Moon is Illuminated
Jun 20
Last Quarter
Jun 27
New
Jul 5
First Quarter
Jul 12
Full
Jul 18
Last Quarter

Hourly Weather History & Observations

Time (MDT) Temp. Dew Point Humidity Pressure Visibility Wind Dir Wind Speed Gust Speed Precip Events Conditions
12:53 AM 50.0 °F 43.0 °F 77% 29.92 in - SSE 5.8 mph - N/A   Clear
1:53 AM 51.1 °F 43.0 °F 74% 29.90 in - South 11.5 mph - N/A   Clear
2:53 AM 57.9 °F 37.9 °F 47% 29.88 in - SSW 19.6 mph - N/A   Clear
3:53 AM 59.0 °F 36.0 °F 42% 29.87 in - SW 17.3 mph - N/A   Clear
4:53 AM 59.0 °F 35.1 °F 41% 29.88 in - SW 16.1 mph - N/A   Clear
5:53 AM 60.1 °F 37.0 °F 42% 29.88 in - SW 15.0 mph - N/A   Clear
6:53 AM 62.1 °F 37.9 °F 41% 29.90 in 10.0 mi SW 18.4 mph - N/A   Unknown
7:53 AM 66.2 °F 41.0 °F 40% 30.03 in 10.0 mi West 12.7 mph - N/A   Clear
8:53 AM 69.1 °F 42.1 °F 38% 29.94 in 10.0 mi West 6.9 mph - N/A   Clear
9:53 AM 73.0 °F 43.0 °F 34% 29.93 in 10.0 mi Calm Calm - N/A   Clear
10:53 AM 73.9 °F 42.1 °F 32% 29.92 in 10.0 mi North 3.5 mph - N/A   Clear
11:53 AM 75.9 °F 41.0 °F 29% 29.93 in 10.0 mi West 6.9 mph - N/A   Clear
12:53 PM 78.1 °F 43.0 °F 29% 29.91 in 10.0 mi Variable 3.5 mph - N/A   Clear
1:53 PM 78.8 °F 39.2 °F 24% 29.99 in 10.0 mi West 6.9 mph - N/A   Clear
2:53 PM 80.1 °F 41.0 °F 25% 29.87 in 10.0 mi NW 10.4 mph - N/A   Clear
3:53 PM 81.0 °F 41.0 °F 24% 29.85 in 10.0 mi NW 9.2 mph - N/A   Clear
4:53 PM 81.0 °F 44.1 °F 27% 29.85 in 10.0 mi NNW 5.8 mph - N/A   Clear
5:53 PM 77.0 °F 48.0 °F 36% 29.85 in 9.0 mi NNW 4.6 mph - N/A   Partly Cloudy
6:53 PM 77.0 °F 44.1 °F 31% 29.84 in 10.0 mi ENE 4.6 mph - N/A   Clear
7:53 PM 72.0 °F 45.0 °F 38% 29.84 in 10.0 mi ENE 8.1 mph - N/A   Clear
8:53 PM 64.0 °F 48.0 °F 56% 29.85 in 10.0 mi Calm Calm - N/A   Clear
9:53 PM 55.9 °F 46.9 °F 72% 29.87 in 10.0 mi SSW 3.5 mph - N/A   Clear
10:53 PM 55.9 °F 46.9 °F 72% 29.86 in 10.0 mi South 4.6 mph - N/A   Clear
11:53 PM 57.9 °F 46.9 °F 67% 29.83 in 10.0 mi South 5.8 mph - N/A   Clear